[[{"header":{"parameterUnit":"m.s-1","parameterCategory":1,"la1":30.2991,"la2":30.254,"lo1":-89.0895,"lo2":-89.0444,"dy":0.0017,"dx":0.0017,"nx":28,"ny":28,"refTime":"2025-07-20T21:00:00:Z","depth":0,"parameterNumber":2,"parameterNumberName":"U-component_of_WINDS"},"data":[0,0,0,0,0,0,0,0,0,0,0,0,0,0,0,0,0,0,0,0,0,0,0,0,0,0,0,0,0,0,0,0,0,0,0,0,0,0,0,0,0,0,0,0,0,0,0,0,0,0,0,0,0,0,0,0,0,0,1.9487,1.9488,0,1.9609,1.9611,1.9612,1.9635,1.9634,1.9633,1.9632,1.9765,1.9769,1.9773,0,0,0,0,0,0,0,0,0,0,0,0,0,1.928,1.9284,1.9487,1.9488,1.949,1.9609,1.9611,1.9613,1.9635,1.9634,1.9633,1.9632,1.9763,1.9768,1.9774,0,0,0,0,0,0,0,0,0,0,0,0,0,1.9383,1.9285,1.9486,1.9515,1.9519,1.9609,1.9611,1.9613,1.9636,1.9634,1.9633,1.9631,1.9761,1.9768,1.9775,1.9846,0,0,1.9795,1.9798,0,0,0,0,0,0,0,0,1.9378,1.9391,1.951,1.9514,1.9518,1.9605,1.9587,1.9691,1.9636,1.9592,1.9632,1.9631,1.9713,1.9724,1.975,1.9852,1.9858,1.9796,1.98,1.9803,1.9804,0,0,0,0,0,0,0,1.937,1.9386,1.9535,1.9511,1.9517,1.9525,1.9538,1.9607,1.966,1.9595,1.9597,1.9611,1.9715,1.9744,1.9754,1.986,1.9795,1.9801,1.9805,1.9808,2.0031,2.0032,0,0,0,0,0,0,1.9357,1.938,1.9532,1.9539,1.9442,1.953,1.9544,1.9579,1.9659,1.967,1.9612,1.9612,1.9733,1.9746,1.9758,1.985,1.9802,1.9809,1.9813,2.0029,2.0031,2.0033,0,0,0,0,0,0,1.9353,1.937,1.9527,1.946,1.9481,1.9535,1.9574,1.9582,1.9611,1.9672,1.9682,1.9631,1.9733,1.9749,1.9825,1.9855,1.9812,1.9818,2.0026,2.0029,2.0032,2.0032,0,0,0,0,0,0,1.9346,1.9369,1.9394,1.946,1.9484,1.9588,1.9575,1.9586,1.9621,1.9622,1.9692,1.9702,1.9733,1.9814,1.9831,1.9863,1.9823,2.0024,2.0028,2.0031,2.0029,2.0034,2.0038,0,0,0,0,0,1.9339,1.939,1.9395,1.9413,1.9517,1.959,1.9603,1.9635,1.9623,1.9652,1.9691,1.97,1.9848,1.9822,1.9841,1.9876,2.0022,2.0027,2.0031,2.0027,2.0033,2.0038,0,0,0,0,0,0,1.9328,1.9399,1.9406,1.9479,1.9528,1.9593,1.9629,1.964,1.9695,1.9693,1.9733,1.9748,1.9822,1.9856,1.9826,1.9951,1.9935,1.9943,1.9926,1.9932,1.9936,1.9928,1.9829,0,0,0,0,0,1.9333,1.9384,1.9445,1.9504,1.9528,1.9574,1.9607,1.9627,1.968,1.9702,1.9747,1.98,1.9859,1.9897,1.9955,2.0034,2.0052,2.0068,2.0072,2.0076,2.0083,2.0131,2.014,2.0047,2.0047,2.0047,0,0,1.9346,1.9391,1.9421,1.9502,1.9543,1.9598,1.9591,1.9649,1.9691,1.9711,1.9785,1.9821,1.9883,1.9961,1.9998,1.9992,2.0112,2.0081,2.0083,2.0089,2.0136,2.0145,2.0153,2.005,2.0049,2.0049,0,0,1.9398,1.9436,1.949,1.9531,1.9591,1.9622,1.9635,1.97,1.9724,1.9798,1.9815,1.9867,1.9967,2.0012,2.0047,2.0118,2.013,2.0136,2.0161,2.0207,2.0214,2.0221,2.0249,2.0258,2.0143,2.0143,2.0143,0,1.9407,1.9487,1.9518,1.9575,1.9612,1.9631,1.9689,1.9727,1.9804,1.9831,1.9822,1.9949,1.9993,2.0083,2.0101,2.0128,2.0147,2.0129,2.021,2.0217,2.0224,2.0251,2.0262,2.0143,2.0143,2.0143,2.0143,0,1.9497,1.9553,1.959,1.9663,1.9704,1.9761,1.9803,1.9841,1.9858,1.9891,1.9969,2.0021,2.0091,2.0114,2.0131,2.0208,2.0203,2.0202,2.0187,2.0233,2.0259,2.027,2.0144,2.0144,2.0144,2.0144,0,0,1.9545,1.9634,1.9647,1.9682,1.9751,1.9796,1.9856,1.9922,1.9956,2.0009,2.0062,2.0147,2.0147,2.0188,2.0211,2.0251,2.0308,2.0246,2.0248,2.0258,2.04,2.0401,2.0413,2.0315,2.0317,2.0319,2.0395,0,1.9607,1.9711,1.9741,1.983,1.9885,1.9905,1.9957,2.0007,2.004,2.0093,2.013,2.0191,2.0184,2.021,2.025,2.0292,2.0337,2.0287,2.0369,2.0371,2.0354,2.0426,2.0428,2.0497,2.0405,2.0407,2.0408,0,1.9693,1.9746,1.984,1.9905,1.9929,1.9975,2.004,2.0089,2.0148,2.0169,2.0215,2.0235,2.0302,2.0282,2.0376,2.0341,2.0377,2.0403,2.0406,2.0417,2.0394,2.0441,2.0519,2.0531,2.0425,2.0423,2.0422,0,1.9721,1.9817,1.9887,1.9915,1.9991,2.0024,2.0058,2.0114,2.0153,2.0211,2.0237,2.0302,2.0339,2.039,2.0429,2.041,2.0521,2.0503,2.0543,2.0542,2.0567,2.0565,2.0654,2.0586,2.0586,2.0585,2.0585,0,1.9789,1.9846,1.9901,1.9944,2.001,2.0045,2.0111,2.0146,2.0197,2.025,2.0271,2.0321,2.0367,2.0424,2.0455,2.053,2.0546,2.0568,2.0575,2.0567,2.0564,2.0592,2.0589,2.0588,2.0588,2.0587,2.0587,0,1.9832,1.9871,1.9948,2.0014,2.0032,2.0079,2.0137,2.0181,2.0214,2.0281,2.0299,2.0353,2.0421,2.0464,2.0551,2.0572,2.0655,2.066,2.0635,2.0639,2.0677,2.0674,2.0789,2.0807,2.0724,2.0725,2.0726,0,1.9874,1.9918,1.9989,2.0025,2.0059,2.0116,2.0156,2.0193,2.0234,2.0305,2.0342,2.0411,2.0468,2.0577,2.0626,2.0693,2.0702,2.0737,2.0712,2.0703,2.0706,2.0703,2.071,2.0742,2.0743,2.0743,2.0744,0,1.9944,1.9961,2.0016,2.0079,2.0125,2.0177,2.0229,2.0258,2.0305,2.035,2.0419,2.0463,2.0552,2.0622,2.0694,2.0732,2.0748,2.0751,2.0765,2.0757,2.0742,2.0753,2.0649,2.0749,2.0748,2.0748,2.0748,2.0748,1.999,2.0032,2.0088,2.015,2.0193,2.0241,2.0286,2.0326,2.0383,2.0457,2.0476,2.0549,2.061,2.0708,2.0747,2.0807,2.0803,2.0821,2.0826,2.0831,2.0833,2.073,2.082,2.082,2.082,2.082,2.082,0,2.0064,2.0101,2.0157,2.0229,2.0278,2.0285,2.0344,2.0385,2.0449,2.0502,2.0558,2.0639,2.0708,2.0762,2.0833,2.087,2.088,2.0888,2.0887,2.0896,2.0832,2.0814,2.088,2.088,2.088,2.088,2.088,2.088,2.0108,2.018,2.0204,2.0298,2.0336,2.0406,2.044,2.0486,2.0529,2.0618,2.0674,2.0708,2.0763,2.0839,2.0903,2.0917,2.0944,2.0951,2.0968,2.0907,2.09,2.0894,2.0878,2.0956,2.0956,2.1028,2.1028,2.1029]},{"header":{"parameterUnit":"m.s-1","parameterCategory":1,"la1":30.2991,"la2":30.254,"lo1":-89.0895,"lo2":-89.0444,"dy":0.0017,"dx":0.0017,"nx":28,"ny":28,"refTime":"2025-07-20T21:00:00:Z","depth":0,"parameterNumber":3,"parameterNumberName":"V-component_of_WINDS"},"data":[0,0,0,0,0,0,0,0,0,0,0,0,0,0,0,0,0,0,0,0,0,0,0,0,0,0,0,0,0,0,0,0,0,0,0,0,0,0,0,0,0,0,0,0,0,0,0,0,0,0,0,0,0,0,0,0,0,0,1.3629,1.3629,0,1.3672,1.3673,1.3673,1.3662,1.3661,1.366,1.3659,1.3703,1.3705,1.3707,0,0,0,0,0,0,0,0,0,0,0,0,0,1.3533,1.3535,1.3629,1.3629,1.363,1.3672,1.3673,1.3673,1.3662,1.3661,1.366,1.3659,1.3702,1.3705,1.3707,0,0,0,0,0,0,0,0,0,0,0,0,0,1.3576,1.3536,1.3629,1.3629,1.363,1.3672,1.3673,1.3674,1.3662,1.3661,1.3659,1.3658,1.3702,1.3705,1.3707,1.3752,0,0,1.3717,1.3718,0,0,0,0,0,0,0,0,1.3573,1.3579,1.3629,1.3629,1.363,1.366,1.3655,1.37,1.3662,1.365,1.3659,1.3658,1.369,1.3694,1.3705,1.3754,1.3756,1.3717,1.3719,1.372,1.3721,0,0,0,0,0,0,0,1.357,1.3577,1.3646,1.3629,1.363,1.3626,1.3631,1.3664,1.3677,1.3651,1.365,1.3655,1.369,1.3702,1.3706,1.3756,1.3717,1.3719,1.3721,1.3722,1.384,1.3841,0,0,0,0,0,0,1.3567,1.3575,1.3645,1.3647,1.3598,1.3629,1.3634,1.3652,1.3676,1.3679,1.3656,1.3655,1.3697,1.3702,1.3707,1.3758,1.372,1.3723,1.3724,1.3839,1.384,1.3842,0,0,0,0,0,0,1.3565,1.3573,1.3643,1.3611,1.3619,1.3632,1.3652,1.3653,1.3665,1.368,1.3683,1.3666,1.3697,1.3703,1.374,1.3759,1.3724,1.3727,1.3837,1.3839,1.3841,1.3861,0,0,0,0,0,0,1.3562,1.3573,1.3591,1.3611,1.3621,1.3676,1.3653,1.3655,1.367,1.3669,1.369,1.3693,1.3696,1.3736,1.3743,1.3763,1.3729,1.3835,1.3838,1.384,1.3859,1.3864,1.3868,0,0,0,0,0,1.3559,1.3596,1.3592,1.36,1.3644,1.3677,1.3683,1.3686,1.3672,1.3689,1.3698,1.3692,1.3756,1.3739,1.3748,1.3769,1.3834,1.3837,1.384,1.3857,1.3863,1.3868,0,0,0,0,0,0,1.3578,1.3598,1.3594,1.3639,1.3656,1.3675,1.3697,1.3693,1.3714,1.3712,1.3715,1.372,1.3757,1.3767,1.3748,1.3811,1.3793,1.3798,1.3803,1.3809,1.3813,1.3809,1.3732,0,0,0,0,0,1.3587,1.3613,1.3629,1.3667,1.3676,1.3685,1.37,1.37,1.3718,1.3726,1.3738,1.3755,1.3779,1.3795,1.3818,1.386,1.3863,1.3879,1.3883,1.3887,1.389,1.391,1.3916,1.3852,1.3852,1.3852,0,0,1.3607,1.3621,1.3637,1.3671,1.3684,1.3709,1.3691,1.372,1.3738,1.373,1.3765,1.3774,1.3793,1.3833,1.3851,1.3842,1.3909,1.3891,1.3893,1.3895,1.3914,1.392,1.3925,1.3854,1.3853,1.3853,0,0,1.3655,1.3669,1.37,1.3713,1.3733,1.3739,1.3746,1.3765,1.3771,1.3806,1.3799,1.382,1.3862,1.3875,1.3887,1.3936,1.393,1.3944,1.3967,1.3986,1.3991,1.3996,1.401,1.4016,1.3948,1.3948,1.3948,0,1.3676,1.3714,1.3717,1.3745,1.3758,1.3751,1.3781,1.3794,1.3821,1.383,1.382,1.387,1.3883,1.3923,1.3934,1.3946,1.3952,1.3941,1.399,1.3995,1.3999,1.4013,1.4019,1.3949,1.3949,1.3949,1.3949,0,1.3738,1.3765,1.3787,1.3811,1.3828,1.3857,1.3862,1.3878,1.3877,1.3883,1.3916,1.3931,1.3955,1.3965,1.3965,1.4005,1.3998,1.399,1.3971,1.4006,1.4019,1.4025,1.3951,1.395,1.395,1.395,0,0,1.3801,1.3824,1.3832,1.3841,1.3861,1.3881,1.3909,1.3931,1.3944,1.3962,1.3983,1.4017,1.4008,1.4022,1.4022,1.404,1.4074,1.4028,1.4029,1.4034,1.4115,1.412,1.4126,1.407,1.4071,1.4072,1.4112,0,1.3848,1.3896,1.3898,1.3941,1.3963,1.3956,1.3979,1.3993,1.3999,1.4018,1.4024,1.4047,1.4035,1.4042,1.4059,1.4066,1.4089,1.4063,1.4088,1.4089,1.4082,1.4134,1.414,1.4177,1.4118,1.4119,1.4119,0,1.3911,1.3929,1.3974,1.3987,1.3997,1.4018,1.4037,1.4056,1.4071,1.4074,1.4087,1.4084,1.411,1.4092,1.4127,1.4109,1.4119,1.4123,1.4125,1.4126,1.4105,1.4134,1.419,1.4195,1.4128,1.4127,1.4127,0,1.3948,1.3984,1.4014,1.4023,1.4041,1.4055,1.4063,1.4076,1.4089,1.4105,1.4113,1.4133,1.4144,1.4158,1.416,1.4147,1.4194,1.4176,1.4195,1.4195,1.4204,1.4204,1.426,1.4214,1.4214,1.4214,1.4214,0,1.4,1.4027,1.4031,1.405,1.4079,1.408,1.4108,1.4115,1.4126,1.4145,1.414,1.4158,1.416,1.4178,1.418,1.4206,1.4212,1.4213,1.4213,1.4213,1.4212,1.4218,1.4215,1.4215,1.4215,1.4215,1.4215,0,1.4047,1.405,1.4083,1.4095,1.4099,1.412,1.413,1.4147,1.4151,1.4175,1.418,1.4187,1.4207,1.4211,1.4235,1.4236,1.4267,1.4265,1.4262,1.4261,1.4278,1.4276,1.434,1.4347,1.4298,1.4298,1.4299,0,1.4079,1.4099,1.4113,1.4124,1.4133,1.4152,1.4164,1.4165,1.4177,1.4194,1.4208,1.4228,1.4243,1.4276,1.4282,1.43,1.4297,1.4318,1.43,1.4298,1.4294,1.4292,1.4293,1.4321,1.4322,1.4322,1.4323,0,1.4134,1.4134,1.4151,1.4168,1.4182,1.4196,1.4209,1.4219,1.4221,1.4235,1.4255,1.4267,1.429,1.4309,1.4326,1.4333,1.4328,1.4328,1.4333,1.4332,1.4328,1.4328,1.4269,1.4327,1.4326,1.4326,1.4326,1.4326,1.4173,1.4189,1.42,1.4219,1.4228,1.4239,1.4255,1.426,1.4277,1.4295,1.4294,1.4316,1.4327,1.4349,1.4357,1.4373,1.4366,1.4374,1.4375,1.4377,1.4377,1.4327,1.4377,1.4376,1.4376,1.4376,1.4376,0,1.4226,1.4232,1.4249,1.4266,1.4279,1.4273,1.4286,1.4298,1.4316,1.4327,1.4342,1.4363,1.438,1.4387,1.4404,1.4415,1.4412,1.4419,1.4417,1.4418,1.4384,1.4377,1.442,1.442,1.442,1.442,1.442,1.442,1.4255,1.4281,1.4281,1.4311,1.4317,1.4337,1.4345,1.4355,1.4363,1.4387,1.44,1.4405,1.4413,1.443,1.4444,1.4446,1.4451,1.4458,1.4459,1.4426,1.4421,1.4417,1.441,1.446,1.446,1.4491,1.4492,1.4492]}]]